Location: Doughton Park
(36.4224°N, 81.1835°W)
Time: 10:54:21
(UTC-05:00)

ISS - All Passes

Search period start: 28 February 2015 00:00
Search period end: 10 March 2015 01:00
Orbit: 397 x 408 km, 51.6° (Epoch: 28 February)

Date Brightness Start Highest point End Pass type
(mag) Time Alt. Az. Time Alt. Az. Time Alt. Az.
28 Feb - 08:37:15 10° SE 08:37:42 10° SE 08:38:20 10° ESE daylight
28 Feb - 10:10:37 10° WSW 10:13:48 61° NW 10:17:00 10° NE daylight
28 Feb - 11:49:46 10° NW 11:50:49 11° NNW 11:51:47 10° N daylight
28 Feb - 16:40:18 10° NW 16:43:27 47° NE 16:46:36 10° ESE daylight
28 Feb - 18:17:51 10° W 18:19:37 14° SW 18:21:18 10° SSW daylight
01 Mar - 09:17:42 10° SW 09:20:52 59° SE 09:24:04 10° NE daylight
01 Mar - 10:55:24 10° WNW 10:57:35 16° NNW 10:59:42 10° NNE daylight
01 Mar - 15:47:37 10° NNW 15:50:23 25° NNE 15:53:10 10° E daylight
01 Mar - 17:23:57 10° WNW 17:26:48 28° SW 17:29:38 10° SSE daylight
02 Mar - 08:25:16 10° S 08:28:00 26° SE 08:30:47 10° ENE daylight
02 Mar - 10:01:36 10° W 10:04:24 26° NNW 10:07:11 10° NNE daylight
02 Mar - 14:55:07 10° NNW 14:57:12 16° NNE 14:59:20 10° ENE daylight
02 Mar - 16:30:42 10° NW 16:33:55 63° SW 16:37:08 10° SE daylight
03 Mar - 07:33:41 10° SSE 07:35:10 13° SE 07:36:45 10° E daylight
03 Mar - 09:08:09 10° WSW 09:11:18 49° NW 09:14:27 10° NE daylight
03 Mar - 10:48:16 10° NNW 10:48:23 10° NNW 10:48:27 10° NNW daylight
03 Mar - 14:03:04 10° N 14:03:55 11° NNE 14:04:50 10° NE daylight
03 Mar - 15:37:44 10° NW 15:40:56 58° NE 15:44:08 10° ESE daylight
03 Mar - 17:15:59 10° WSW 17:17:02 11° SW 17:17:58 10° SW daylight
04 Mar - 08:15:05 10° SW 08:18:17 75° SE 08:21:31 10° NE daylight
04 Mar - 09:53:08 10° WNW 09:55:04 15° NNW 09:56:57 10° N daylight
04 Mar - 14:44:57 10° NNW 14:47:50 29° NNE 14:50:44 10° E daylight
04 Mar - 16:21:31 10° WNW 16:24:10 23° SW 16:26:47 10° S daylight
05 Mar - 07:22:25 10° SSW 07:25:20 32° SE 07:28:17 10° ENE daylight
05 Mar - 08:59:09 10° W 09:01:48 23° NNW 09:04:27 10° NNE daylight
05 Mar - 13:52:19 10° NNW 13:54:37 18° NNE 13:56:57 10° ENE daylight
05 Mar - 15:28:05 10° WNW 15:31:15 50° SW 15:34:23 10° SSE daylight
06 Mar - 06:30:26 10° SSE 06:32:25 16° SE 06:34:29 10° E daylight
06 Mar - 08:05:32 10° WSW 08:08:37 41° NW 08:11:42 10° NE daylight
06 Mar - 13:00:00 10° N 13:01:17 12° NNE 13:02:38 10° NE daylight
06 Mar - 14:34:59 10° NW 14:38:13 71° NE 14:41:27 10° SE daylight
07 Mar - 07:12:17 10° SW 07:15:31 88° NNW 07:18:45 10° NE daylight
07 Mar - 08:50:42 10° NW 08:52:22 13° NNW 08:53:59 10° N daylight
07 Mar - 13:42:05 10° NNW 13:45:05 34° NE 13:48:05 10° ESE daylight
07 Mar - 15:18:57 10° W 15:21:21 19° SW 15:23:42 10° S daylight
08 Mar - 07:19:26 10° SSW 07:22:29 40° SE 07:25:32 10° ENE visible
08 Mar - 08:56:31 10° W 08:59:01 20° NNW 09:01:30 10° NNE daylight
08 Mar - 13:49:21 10° NNW 13:51:49 20° NNE 13:54:20 10° E daylight
08 Mar - 15:25:18 10° WNW 15:28:22 40° SW 15:31:25 10° SSE daylight
09 Mar - 06:27:09 10° S 06:29:29 19° SE 06:31:53 10° E visible
09 Mar - 08:02:44 10° WSW 08:05:45 34° NW 08:08:45 10° NNE daylight
09 Mar - 12:56:50 10° N 12:58:27 13° NNE 13:00:07 10° NE daylight
09 Mar - 14:32:04 10° NW 14:35:18 87° NE 14:38:32 10° SE daylight
